OK4PZ-5 Weather Reports


time (UTC)temp
C
wind
direction
speed
KPH
gust
KPH
rain 1hr
cm
rain 24hr
cm
rain mn
cm
humidity
%
barometer
mb
20260507151502 17 270 1.6 4.8 0.00 0.00 0.00 48 1014.0
20260507150002 18 317 4.8 11.3 0.00 0.00 0.00 45 1014.0
20260507144502 17 299 4.8 9.7 0.00 0.00 0.00 48 1014.0
20260507143001 17 0 4.8 12.9 0.00 0.00 0.00 49 1014.0
20260507141503 17 252 4.8 12.9 0.00 0.00 0.00 50 1014.0
20260507140001 19 276 3.2 6.4 0.00 0.00 0.00 45 1014.0
20260507134502 17 274 3.2 6.4 0.00 0.00 0.00 49 1015.0
20260507133002 18 212 9.7 14.5 0.00 0.00 0.00 47 1015.0
20260507131501 18 264 6.4 9.7 0.00 0.00 0.00 49 1015.0
20260507130002 17 241 3.2 9.7 0.00 0.00 0.00 51 1015.0
20260507124502 17 263 9.7 12.9 0.00 0.00 0.00 53 1015.0
20260507123002 17 271 12.9 22.5 0.00 0.00 0.00 53 1015.0
20260507121501 17 280 9.7 17.7 0.00 0.00 0.00 53 1015.0
20260507120002 18 227 4.8 12.9 0.00 0.00 0.00 49 1014.0
20260507114502 18 285 6.4 11.3 0.00 0.00 0.00 51 1014.0
20260507113002 17 265 6.4 12.9 0.00 0.00 0.00 53 1014.0
20260507111503 18 301 8.0 12.9 0.00 0.00 0.00 50 1014.0
20260507110003 17 295 4.8 12.9 0.00 0.00 0.00 52 1014.0
20260507104501 17 323 6.4 16.1 0.00 0.00 0.00 52 1014.0
20260507103002 16 313 9.7 12.9 0.00 0.00 0.00 52 1014.0
20260507101501 17 252 8.0 12.9 0.00 0.00 0.00 51 1014.0
20260507100002 16 260 9.7 12.9 0.00 0.00 0.00 53 1015.0
20260507094502 16 204 6.4 12.9 0.00 0.00 0.00 57 1014.0
20260507093002 16 218 3.2 11.3 0.00 0.00 0.00 57 1014.0
20260507091502 16 243 6.4 16.1 0.00 0.00 0.00 55 1014.0
20260507090002 16 243 6.4 9.7 0.00 0.00 0.00 58 1014.0
20260507084502 15 209 6.4 14.5 0.00 0.00 0.00 60 1014.0
20260507083001 15 262 3.2 14.5 0.00 0.00 0.00 61 1014.0
20260507081502 15 242 6.4 14.5 0.00 0.00 0.00 63 1014.0
20260507080002 15 244 8.0 20.9 0.00 0.00 0.00 64 1014.0
20260507074502 13 273 6.4 22.5 0.00 0.00 0.00 65 1014.0
20260507073004 14 285 8.0 12.9 0.00 0.00 0.00 67 1013.0
20260507071502 13 304 6.4 14.5 0.00 0.00 0.00 68 1013.0
20260507070003 13 250 8.0 14.5 0.00 0.00 0.00 73 1013.0
20260507064502 13 249 6.4 12.9 0.00 0.00 0.00 73 1014.0
20260507063002 12 264 6.4 12.9 0.00 0.00 0.00 77 1014.0
20260507061502 12 242 4.8 12.9 0.00 0.00 0.00 79 1013.0
20260507060002 11 236 3.2 9.7 0.00 0.00 0.00 82 1013.0
20260507054502 11 259 3.2 11.3 0.00 0.00 0.00 84 1013.0
20260507053001 10 262 3.2 9.7 0.00 0.00 0.00 86 1013.0
20260507051502 10 263 3.2 11.3 0.00 0.00 0.00 88 1013.0
20260507044502 10 259 1.6 4.8 0.00 0.00 0.00 90 1013.0
20260507043003 10 254 1.6 1.6 0.00 0.00 0.00 91 1012.0
20260507041502 10 230 0.0 4.8 0.00 0.00 0.00 91 1012.0
20260507040002 10 260 3.2 3.2 0.00 0.00 0.00 92 1012.0
20260507034502 10 247 1.6 1.6 0.00 0.00 0.00 92 1012.0
20260507033002 10 238 0.0 1.6 0.00 0.00 0.00 91 1012.0
20260507031502 10 260 0.0 3.2 0.00 0.00 0.00 91 1012.0
20260507030002 11 243 0.0 1.6 0.00 0.00 0.00 91 1011.0
20260507024502 11 260 0.0 1.6 0.00 0.00 0.00 91 1011.0
20260507023002 11 265 1.6 3.2 0.00 0.00 0.00 91 1011.0
20260507021502 11 262 1.6 4.8 0.00 0.00 0.00 89 1011.0
20260507020002 12 238 3.2 4.8 0.00 0.00 0.00 89 1011.0
20260507014502 12 245 6.4 9.7 0.00 0.00 0.00 89 1011.0
20260507011501 12 181 4.8 4.8 0.00 0.00 0.00 90 1011.0
20260507010002 12 272 4.8 6.4 0.00 0.00 0.00 90 1011.0
20260507004502 12 259 1.6 4.8 0.00 0.00 0.00 92 1011.0
20260507003002 11 288 1.6 3.2 0.00 0.00 0.00 94 1011.0
20260507001503 11 275 0.0 1.6 0.00 0.00 0.00 94 1011.0
20260507000002 12 283 0.0 1.6 0.00 0.00 0.00 94 1011.0
20260506234502 12 256 1.6 4.8 0.00 0.00 0.00 94 1011.0
20260506233001 12 263 1.6 1.6 0.00 0.00 0.00 94 1010.0
20260506231502 12 267 3.2 3.2 0.00 0.00 0.00 94 1010.0
20260506230002 12 226 4.8 11.3 0.00 0.00 0.00 94 1010.0
20260506224502 12 272 6.4 17.7 0.00 0.00 0.00 94 1010.0
20260506223003 12 268 11.3 12.9 0.00 0.00 0.00 93 1010.0
20260506221503 12 255 4.8 9.7 0.00 0.00 0.00 94 1009.0
20260506220002 13 229 6.4 11.3 0.00 0.00 0.08 93 1009.0
20260506214502 13 270 8.0 14.5 0.00 0.00 0.08 93 1009.0
20260506213002 13 243 6.4 9.7 0.00 0.00 0.08 91 1009.0
20260506211502 13 24 0.0 0.0 0.00 0.00 0.08 92 1008.0
20260506210002 13 288 0.0 4.8 0.00 0.00 0.08 92 1009.0
20260506204502 13 293 6.4 9.7 0.00 0.00 0.08 92 1009.0
20260506203003 13 283 3.2 12.9 0.00 0.00 0.08 91 1009.0
20260506201501 13 300 11.3 16.1 0.00 0.00 0.08 90 1008.0
20260506200002 15 297 11.3 20.9 0.00 0.00 0.08 84 1008.0
20260506194502 16 245 9.7 12.9 0.00 0.00 0.08 75 1008.0
20260506193002 16 89 1.6 4.8 0.00 0.00 0.08 74 1007.0
20260506191502 16 46 3.2 11.3 0.00 0.00 0.08 73 1006.0
20260506190001 16 36 4.8 6.4 0.00 0.00 0.08 71 1006.0
20260506184502 16 289 0.0 0.0 0.00 0.00 0.08 76 1006.0
20260506183003 16 290 1.6 3.2 0.00 0.00 0.08 70 1006.0
20260506181502 17 94 0.0 1.6 0.00 0.00 0.08 68 1005.0
20260506180002 18 126 0.0 0.0 0.00 0.00 0.08 60 1005.0
20260506174502 20 129 0.0 0.0 0.00 0.00 0.08 53 1005.0
20260506173002 20 137 3.2 3.2 0.00 0.00 0.08 50 1005.0
20260506171502 20 121 1.6 3.2 0.00 0.00 0.08 48 1005.0
20260506170002 21 128 3.2 3.2 0.00 0.00 0.08 48 1005.0
20260506164502 21 104 1.6 14.5 0.00 0.00 0.08 47 1005.0
20260506163002 22 179 1.6 6.4 0.00 0.00 0.08 47 1006.0
20260506161502 22 127 11.3 16.1 0.00 0.00 0.08 45 1006.0
20260506160002 22 135 4.8 14.5 0.00 0.00 0.08 46 1006.0
20260506154502 22 122 1.6 9.7 0.00 0.00 0.08 49 1006.0
20260506153002 20 45 0.0 3.2 0.00 0.00 0.08 56 1006.0